Location: ??????????
(48.4699°N, 37.9573°E)
Time: 21:11:47
(UTC+00:00)

COSMO-SKYMED 1 - Pass Details

Date: 20 January 2021
Orbit: 621 x 623 km, 97.9° (Epoch: 02 March)

Event Time Altitude Azimuth Distance (km) Brightness Sun altitude
Exits shadow 16:18:10 - 6° (N) 2,636 5.7 -21.1°
Reaches altitude 10° 16:19:45 10° 1° (N) 2,006 5.1 -21.4°
Maximum altitude 16:23:52 42° 291° (WNW) 898 3.8 -22.1°
Drops below altitude 10° 16:27:56 10° 221° (SW) 1,990 5.7 -22.8°
Sets 16:30:12 0° 214° (SW) 2,892 6.5 -23.1°
